Time,TemperatureF,DewpointF,PressureIn,WindDirection,WindDirectionDegrees,WindSpeedMPH,WindSpeedGustMPH,Humidity,HourlyPrecipIn,Conditions,Clouds,dailyrainin,SoftwareType,DateUTC
2013-11-04 00:02:00,34.0,28.8,30.20,North,5,2.0,2.0,81,0.00,,,0.00,Wunderground v.1.15,2013-11-04 04:02:00,
2013-11-04 00:12:00,34.2,29.0,30.20,North,11,2.0,2.0,81,0.00,,,0.00,Wunderground v.1.15,2013-11-04 04:12:00,
2013-11-04 00:17:00,34.3,29.4,30.20,North,11,1.0,2.0,82,0.00,,,0.00,Wunderground v.1.15,2013-11-04 04:17:00,
2013-11-04 00:22:00,34.4,29.5,30.21,NE,36,1.0,1.0,82,0.00,,,0.00,Wunderground v.1.15,2013-11-04 04:22:00,
2013-11-04 00:27:00,34.6,29.7,30.21,NE,35,1.0,1.0,82,0.00,,,0.00,Wunderground v.1.15,2013-11-04 04:27:00,
2013-11-04 00:32:00,34.7,29.8,30.21,NNE,22,1.0,2.0,82,0.00,,,0.00,Wunderground v.1.15,2013-11-04 04:32:00,
2013-11-04 00:37:00,34.8,29.6,30.21,NNE,26,1.0,2.0,81,0.00,,,0.00,Wunderground v.1.15,2013-11-04 04:37:00,
2013-11-04 00:42:00,34.9,29.7,30.22,NE,34,2.0,2.0,81,0.00,,,0.00,Wunderground v.1.15,2013-11-04 04:42:00,
2013-11-04 00:47:00,35.4,29.8,30.22,NE,41,2.0,3.0,80,0.00,,,0.00,Wunderground v.1.15,2013-11-04 04:47:00,
2013-11-04 00:52:00,35.9,30.0,30.22,SE,126,3.0,3.0,79,0.00,,,0.00,Wunderground v.1.15,2013-11-04 04:52:00,
2013-11-04 00:57:00,36.3,29.8,30.22,NE,49,3.0,3.0,77,0.00,,,0.00,Wunderground v.1.15,2013-11-04 04:57:00,
2013-11-04 01:02:00,36.6,29.4,30.22,ENE,57,3.0,5.0,75,0.00,,,0.00,Wunderground v.1.15,2013-11-04 05:02:00,
2013-11-04 01:07:00,36.7,29.5,30.23,ENE,66,3.0,5.0,75,0.00,,,0.00,Wunderground v.1.15,2013-11-04 05:07:00,
2013-11-04 01:12:00,36.9,29.1,30.23,NE,52,4.0,5.0,73,0.00,,,0.00,Wunderground v.1.15,2013-11-04 05:12:00,
2013-11-04 01:17:00,36.8,29.0,30.23,NE,51,4.0,5.0,73,0.00,,,0.00,Wunderground v.1.15,2013-11-04 05:17:00,
2013-11-04 01:22:00,36.8,29.0,30.23,NE,44,3.0,4.0,73,0.00,,,0.00,Wunderground v.1.15,2013-11-04 05:22:00,
2013-11-04 01:27:00,36.8,29.0,30.24,NE,37,3.0,4.0,73,0.00,,,0.00,Wunderground v.1.15,2013-11-04 05:27:00,
2013-11-04 01:32:00,36.8,29.0,30.24,NE,55,3.0,3.0,73,0.00,,,0.00,Wunderground v.1.15,2013-11-04 05:32:00,
2013-11-04 01:42:00,36.7,28.9,30.24,NE,38,4.0,4.0,73,0.00,,,0.00,Wunderground v.1.15,2013-11-04 05:42:00,
2013-11-04 01:47:00,36.7,28.9,30.24,NE,54,3.0,4.0,73,0.00,,,0.00,Wunderground v.1.15,2013-11-04 05:47:00,
2013-11-04 01:52:00,36.7,28.5,30.25,ENE,63,3.0,4.0,72,0.00,,,0.00,Wunderground v.1.15,2013-11-04 05:52:00,
2013-11-04 01:57:00,36.7,28.5,30.25,NE,37,3.0,4.0,72,0.00,,,0.00,Wunderground v.1.15,2013-11-04 05:57:00,
2013-11-04 02:02:00,36.5,28.3,30.25,NE,53,3.0,4.0,72,0.00,,,0.00,Wunderground v.1.15,2013-11-04 06:02:00,
2013-11-04 02:07:00,36.5,28.3,30.25,NE,40,3.0,4.0,72,0.00,,,0.00,Wunderground v.1.15,2013-11-04 06:07:00,
2013-11-04 02:12:00,36.4,28.2,30.26,NE,46,3.0,4.0,72,0.00,,,0.00,Wunderground v.1.15,2013-11-04 06:12:00,
2013-11-04 02:17:00,36.3,28.1,30.26,ENE,68,3.0,4.0,72,0.00,,,0.00,Wunderground v.1.15,2013-11-04 06:17:00,
2013-11-04 02:22:00,36.1,28.3,30.26,NE,40,3.0,3.0,73,0.00,,,0.00,Wunderground v.1.15,2013-11-04 06:22:00,
2013-11-04 02:27:00,35.9,27.7,30.26,NE,35,2.0,3.0,72,0.00,,,0.00,Wunderground v.1.15,2013-11-04 06:27:00,
2013-11-04 02:32:00,35.8,27.7,30.27,NNE,28,2.0,4.0,72,0.00,,,0.00,Wunderground v.1.15,2013-11-04 06:32:00,
2013-11-04 02:37:00,35.7,27.6,30.27,NE,38,3.0,4.0,72,0.00,,,0.00,Wunderground v.1.15,2013-11-04 06:37:00,
2013-11-04 02:47:00,35.4,27.3,30.28,NE,39,3.0,3.0,72,0.00,,,0.00,Wunderground v.1.15,2013-11-04 06:47:00,
2013-11-04 02:52:00,35.2,27.1,30.28,NE,39,2.0,3.0,72,0.00,,,0.00,Wunderground v.1.15,2013-11-04 06:52:00,
2013-11-04 02:57:00,35.0,27.2,30.28,NE,42,2.0,3.0,73,0.00,,,0.00,Wunderground v.1.15,2013-11-04 06:57:00,
2013-11-04 03:07:00,34.5,26.7,30.28,NE,36,2.0,3.0,73,0.00,,,0.00,Wunderground v.1.15,2013-11-04 07:07:00,
2013-11-04 03:17:00,34.0,26.6,30.28,NNE,27,2.0,2.0,74,0.00,,,0.00,Wunderground v.1.15,2013-11-04 07:17:00,
2013-11-04 03:22:00,33.7,26.6,30.28,NNE,26,2.0,2.0,75,0.00,,,0.00,Wunderground v.1.15,2013-11-04 07:22:00,
2013-11-04 03:27:00,33.4,26.3,30.28,NE,48,2.0,2.0,75,0.00,,,0.00,Wunderground v.1.15,2013-11-04 07:27:00,
2013-11-04 03:32:00,33.2,26.1,30.29,NNE,26,2.0,2.0,75,0.00,,,0.00,Wunderground v.1.15,2013-11-04 07:32:00,
2013-11-04 03:37:00,33.0,25.9,30.29,NNE,31,2.0,2.0,75,0.00,,,0.00,Wunderground v.1.15,2013-11-04 07:37:00,
2013-11-04 03:42:00,32.9,25.8,30.29,NNE,29,2.0,2.0,75,0.00,,,0.00,Wunderground v.1.15,2013-11-04 07:42:00,
2013-11-04 03:47:00,32.7,26.0,30.29,NE,38,2.0,4.0,76,0.00,,,0.00,Wunderground v.1.15,2013-11-04 07:47:00,
2013-11-04 03:57:00,32.6,25.9,30.30,NNE,30,2.0,2.0,76,0.00,,,0.00,Wunderground v.1.15,2013-11-04 07:57:00,
2013-11-04 04:02:00,32.5,25.8,30.30,NE,34,2.0,2.0,76,0.00,,,0.00,Wunderground v.1.15,2013-11-04 08:02:00,
2013-11-04 04:07:00,32.5,25.8,30.30,NNE,31,2.0,2.0,76,0.00,,,0.00,Wunderground v.1.15,2013-11-04 08:07:00,
2013-11-04 04:12:00,32.5,25.8,30.30,NNE,32,2.0,3.0,76,0.00,,,0.00,Wunderground v.1.15,2013-11-04 08:12:00,
2013-11-04 04:17:00,32.4,25.7,30.30,NNE,32,2.0,3.0,76,0.00,,,0.00,Wunderground v.1.15,2013-11-04 08:17:00,
2013-11-04 04:22:00,32.1,25.4,30.31,NNE,15,1.0,1.0,76,0.00,,,0.00,Wunderground v.1.15,2013-11-04 08:22:00,
2013-11-04 04:27:00,31.7,25.0,30.31,NNE,15,1.0,1.0,76,0.00,,,0.00,Wunderground v.1.15,2013-11-04 08:27:00,
2013-11-04 04:32:00,31.4,25.0,30.31,NNE,15,1.0,1.0,77,0.00,,,0.00,Wunderground v.1.15,2013-11-04 08:32:00,
2013-11-04 04:37:00,31.2,24.8,30.31,North,5,1.0,2.0,77,0.00,,,0.00,Wunderground v.1.15,2013-11-04 08:37:00,
2013-11-04 04:42:00,31.0,24.9,30.32,North,5,2.0,2.0,78,0.00,,,0.00,Wunderground v.1.15,2013-11-04 08:42:00,
2013-11-04 04:57:00,30.7,25.3,30.33,North,355,2.0,2.0,80,0.00,,,0.00,Wunderground v.1.15,2013-11-04 08:57:00,
2013-11-04 05:02:00,30.6,25.2,30.33,North,360,2.0,3.0,80,0.00,,,0.00,Wunderground v.1.15,2013-11-04 09:02:00,
2013-11-04 05:12:00,30.7,25.6,30.33,NNW,348,3.0,5.0,81,0.00,,,0.00,Wunderground v.1.15,2013-11-04 09:12:00,
2013-11-04 05:17:00,30.8,25.7,30.33,NNW,341,4.0,5.0,81,0.00,,,0.00,Wunderground v.1.15,2013-11-04 09:17:00,
2013-11-04 05:27:00,30.6,25.5,30.33,NNW,335,3.0,4.0,81,0.00,,,0.00,Wunderground v.1.15,2013-11-04 09:27:00,
2013-11-04 05:32:00,30.5,25.4,30.33,NNW,336,2.0,2.0,81,0.00,,,0.00,Wunderground v.1.15,2013-11-04 09:32:00,
2013-11-04 05:37:00,30.4,25.6,30.34,NNW,336,2.0,3.0,82,0.00,,,0.00,Wunderground v.1.15,2013-11-04 09:37:00,
2013-11-04 05:47:00,30.7,25.9,30.34,NNW,344,4.0,4.0,82,0.00,,,0.00,Wunderground v.1.15,2013-11-04 09:47:00,
2013-11-04 05:57:00,31.3,26.1,30.34,North,355,3.0,3.0,81,0.00,,,0.00,Wunderground v.1.15,2013-11-04 09:57:00,
2013-11-04 06:07:00,31.8,26.3,30.35,North,350,3.0,3.0,80,0.00,,,0.00,Wunderground v.1.15,2013-11-04 10:07:00,
2013-11-04 06:12:00,31.9,26.4,30.35,North,355,3.0,3.0,80,0.00,,,0.00,Wunderground v.1.15,2013-11-04 10:12:00,
2013-11-04 06:17:00,32.1,26.3,30.35,North,11,3.0,3.0,79,0.00,,,0.00,Wunderground v.1.15,2013-11-04 10:17:00,
2013-11-04 06:27:00,32.4,26.6,30.36,North,5,3.0,3.0,79,0.00,,,0.00,Wunderground v.1.15,2013-11-04 10:27:00,
2013-11-04 06:32:00,32.5,26.7,30.36,NNE,30,3.0,3.0,79,0.00,,,0.00,Wunderground v.1.15,2013-11-04 10:32:00,
2013-11-04 06:37:00,32.7,27.2,30.36,NNE,17,2.0,3.0,80,0.00,,,0.00,Wunderground v.1.15,2013-11-04 10:37:00,
2013-11-04 06:42:00,32.9,28.0,30.36,NNW,331,3.0,6.0,82,0.00,,,0.00,Wunderground v.1.15,2013-11-04 10:42:00,
2013-11-04 06:47:00,33.2,28.6,30.37,NNE,16,4.0,6.0,83,0.00,,,0.00,Wunderground v.1.15,2013-11-04 10:47:00,
2013-11-04 06:52:00,33.4,29.1,30.37,NW,322,3.0,4.0,84,0.00,,,0.00,Wunderground v.1.15,2013-11-04 10:52:00,
2013-11-04 06:57:00,33.3,28.7,30.37,North,360,3.0,4.0,83,0.00,,,0.00,Wunderground v.1.15,2013-11-04 10:57:00,
2013-11-04 07:02:00,33.2,28.3,30.37,NNW,346,3.0,3.0,82,0.00,,,0.00,Wunderground v.1.15,2013-11-04 11:02:00,
2013-11-04 07:07:00,33.2,28.3,30.38,NNW,338,3.0,3.0,82,0.00,,,0.00,Wunderground v.1.15,2013-11-04 11:07:00,
2013-11-04 07:12:00,33.2,28.3,30.38,North,355,3.0,3.0,82,0.00,,,0.00,Wunderground v.1.15,2013-11-04 11:12:00,
2013-11-04 07:17:00,33.3,28.4,30.38,NNE,14,3.0,3.0,82,0.00,,,0.00,Wunderground v.1.15,2013-11-04 11:17:00,
2013-11-04 07:22:00,33.4,28.5,30.39,North,360,2.0,3.0,82,0.00,,,0.00,Wunderground v.1.15,2013-11-04 11:22:00,
2013-11-04 07:32:00,33.8,29.2,30.39,North,5,3.0,3.0,83,0.00,,,0.00,Wunderground v.1.15,2013-11-04 11:32:00,
2013-11-04 07:37:00,34.1,28.9,30.40,NNE,23,3.0,3.0,81,0.00,,,0.00,Wunderground v.1.15,2013-11-04 11:37:00,
2013-11-04 07:42:00,34.5,28.7,30.40,NE,47,3.0,3.0,79,0.00,,,0.00,Wunderground v.1.15,2013-11-04 11:42:00,
2013-11-04 07:47:00,35.0,28.2,30.41,NE,53,4.0,4.0,76,0.00,,,0.00,Wunderground v.1.15,2013-11-04 11:47:00,
2013-11-04 07:57:00,35.8,27.3,30.41,NE,49,4.0,5.0,71,0.00,,,0.00,Wunderground v.1.15,2013-11-04 11:57:00,
2013-11-04 08:02:00,36.1,27.6,30.41,NE,46,5.0,5.0,71,0.00,,,0.00,Wunderground v.1.15,2013-11-04 12:02:00,
2013-11-04 08:07:00,36.2,27.7,30.42,NNE,16,4.0,6.0,71,0.00,,,0.00,Wunderground v.1.15,2013-11-04 12:07:00,
2013-11-04 08:17:00,36.3,27.8,30.42,NNE,30,4.0,6.0,71,0.00,,,0.00,Wunderground v.1.15,2013-11-04 12:17:00,
2013-11-04 08:22:00,36.4,28.2,30.42,NNE,22,4.0,4.0,72,0.00,,,0.00,Wunderground v.1.15,2013-11-04 12:22:00,
2013-11-04 08:27:00,36.4,28.2,30.42,NNE,17,4.0,5.0,72,0.00,,,0.00,Wunderground v.1.15,2013-11-04 12:27:00,
2013-11-04 08:47:00,36.6,29.1,30.43,NNE,30,5.0,5.0,74,0.00,,,0.00,Wunderground v.1.15,2013-11-04 12:47:00,
2013-11-04 08:52:00,36.6,29.7,30.44,NNE,33,6.0,6.0,76,0.00,,,0.00,Wunderground v.1.15,2013-11-04 12:52:00,
2013-11-04 08:57:00,36.2,30.3,30.44,ENE,59,6.0,6.0,79,0.00,,,0.00,Wunderground v.1.15,2013-11-04 12:57:00,
2013-11-04 09:02:00,36.0,30.1,30.44,NE,34,4.0,5.0,79,0.00,,,0.00,Wunderground v.1.15,2013-11-04 13:02:00,
2013-11-04 09:07:00,35.9,30.3,30.44,NE,46,4.0,6.0,80,0.00,,,0.00,Wunderground v.1.15,2013-11-04 13:07:00,
2013-11-04 09:12:00,36.1,30.2,30.44,ENE,57,4.0,5.0,79,0.00,,,0.00,Wunderground v.1.15,2013-11-04 13:12:00,
2013-11-04 09:17:00,36.2,30.3,30.45,NNE,25,4.0,5.0,79,0.00,,,0.00,Wunderground v.1.15,2013-11-04 13:17:00,
2013-11-04 09:22:00,36.4,30.5,30.45,NE,36,4.0,4.0,79,0.00,,,0.00,Wunderground v.1.15,2013-11-04 13:22:00,
2013-11-04 09:27:00,36.6,30.1,30.45,NNE,25,4.0,5.0,77,0.00,,,0.00,Wunderground v.1.15,2013-11-04 13:27:00,
2013-11-04 09:32:00,36.7,29.8,30.45,NE,49,5.0,5.0,76,0.00,,,0.00,Wunderground v.1.15,2013-11-04 13:32:00,
2013-11-04 09:42:00,37.0,29.8,30.45,NNE,32,4.0,4.0,75,0.00,,,0.00,Wunderground v.1.15,2013-11-04 13:42:00,
2013-11-04 09:47:00,37.2,30.0,30.46,NE,43,3.0,4.0,75,0.00,,,0.00,Wunderground v.1.15,2013-11-04 13:47:00,
2013-11-04 09:52:00,37.3,29.8,30.45,NE,54,3.0,7.0,74,0.00,,,0.00,Wunderground v.1.15,2013-11-04 13:52:00,
2013-11-04 10:02:00,37.3,30.1,30.46,NNE,22,7.0,7.0,75,0.00,,,0.00,Wunderground v.1.15,2013-11-04 14:02:00,
2013-11-04 10:07:00,36.6,30.4,30.46,NNE,26,7.0,7.0,78,0.00,,,0.00,Wunderground v.1.15,2013-11-04 14:07:00,
2013-11-04 10:12:00,36.2,30.3,30.46,NE,45,5.0,5.0,79,0.00,,,0.00,Wunderground v.1.15,2013-11-04 14:12:00,
2013-11-04 10:17:00,36.0,30.4,30.47,NE,52,4.0,5.0,80,0.00,,,0.00,Wunderground v.1.15,2013-11-04 14:17:00,
2013-11-04 10:22:00,36.0,30.4,30.47,NNE,29,4.0,6.0,80,0.00,,,0.00,Wunderground v.1.15,2013-11-04 14:22:00,
2013-11-04 10:27:00,36.2,30.6,30.47,NE,44,5.0,9.0,80,0.00,,,0.00,Wunderground v.1.15,2013-11-04 14:27:00,
2013-11-04 10:32:00,36.2,30.9,30.47,NNE,23,6.0,6.0,81,0.00,,,0.00,Wunderground v.1.15,2013-11-04 14:32:00,
2013-11-04 10:37:00,36.5,31.2,30.47,NNE,30,5.0,6.0,81,0.00,,,0.00,Wunderground v.1.15,2013-11-04 14:37:00,
2013-11-04 10:42:00,37.1,31.8,30.47,NE,38,5.0,7.0,81,0.00,,,0.00,Wunderground v.1.15,2013-11-04 14:42:00,
2013-11-04 10:47:00,37.8,31.6,30.47,NNE,13,6.0,7.0,78,0.00,,,0.00,Wunderground v.1.15,2013-11-04 14:47:00,
2013-11-04 10:52:00,38.1,31.8,30.47,East,79,6.0,6.0,78,0.00,,,0.01,Wunderground v.1.15,2013-11-04 14:52:00,
2013-11-04 10:57:00,38.1,31.2,30.47,NE,45,6.0,6.0,76,0.00,,,0.01,Wunderground v.1.15,2013-11-04 14:57:00,
2013-11-04 11:02:00,38.1,30.9,30.48,NNE,31,6.0,7.0,75,0.00,,,0.01,Wunderground v.1.15,2013-11-04 15:02:00,
2013-11-04 11:12:00,38.0,31.4,30.48,NE,50,6.0,6.0,77,0.00,,,0.01,Wunderground v.1.15,2013-11-04 15:12:00,
2013-11-04 11:17:00,37.9,31.3,30.48,NE,42,5.0,6.0,77,0.00,,,0.01,Wunderground v.1.15,2013-11-04 15:17:00,
2013-11-04 11:22:00,38.0,31.4,30.48,NE,42,5.0,5.0,77,0.00,,,0.01,Wunderground v.1.15,2013-11-04 15:22:00,
2013-11-04 11:27:00,38.2,31.0,30.48,NE,49,6.0,6.0,75,0.00,,,0.01,Wunderground v.1.15,2013-11-04 15:27:00,
2013-11-04 11:32:00,38.1,30.9,30.48,NE,44,6.0,6.0,75,0.00,,,0.01,Wunderground v.1.15,2013-11-04 15:32:00,
2013-11-04 11:37:00,38.0,31.4,30.49,NE,53,5.0,6.0,77,0.00,,,0.01,Wunderground v.1.15,2013-11-04 15:37:00,
2013-11-04 11:42:00,37.3,31.7,30.49,East,88,6.0,6.0,80,0.00,,,0.01,Wunderground v.1.15,2013-11-04 15:42:00,
2013-11-04 11:47:00,36.9,31.6,30.49,NE,44,6.0,9.0,81,0.00,,,0.01,Wunderground v.1.15,2013-11-04 15:47:00,
2013-11-04 11:52:00,36.6,31.9,30.49,NE,34,5.0,6.0,83,0.00,,,0.02,Wunderground v.1.15,2013-11-04 15:52:00,
2013-11-04 11:57:00,36.2,31.5,30.49,ESE,112,5.0,8.0,83,0.00,,,0.02,Wunderground v.1.15,2013-11-04 15:57:00,
2013-11-04 12:02:00,35.9,31.5,30.49,ENE,69,6.0,6.0,84,0.00,,,0.02,Wunderground v.1.15,2013-11-04 16:02:00,
2013-11-04 12:07:00,35.7,31.6,30.49,North,360,7.0,7.0,85,0.00,,,0.02,Wunderground v.1.15,2013-11-04 16:07:00,
2013-11-04 12:17:00,36.6,32.5,30.49,NNE,20,6.0,6.0,85,0.00,,,0.02,Wunderground v.1.15,2013-11-04 16:17:00,
2013-11-04 12:22:00,37.5,33.1,30.49,NNE,25,6.0,8.0,84,0.00,,,0.02,Wunderground v.1.15,2013-11-04 16:22:00,
2013-11-04 12:32:00,38.0,33.0,30.49,NE,37,6.0,6.0,82,0.00,,,0.02,Wunderground v.1.15,2013-11-04 16:32:00,
2013-11-04 12:37:00,38.4,33.4,30.49,NE,43,6.0,6.0,82,0.00,,,0.02,Wunderground v.1.15,2013-11-04 16:37:00,
2013-11-04 12:42:00,39.8,35.1,30.49,NNE,24,5.0,5.0,83,0.00,,,0.02,Wunderground v.1.15,2013-11-04 16:42:00,
2013-11-04 12:47:00,40.9,35.2,30.49,NNE,20,6.0,6.0,80,0.00,,,0.02,Wunderground v.1.15,2013-11-04 16:47:00,
2013-11-04 12:52:00,40.9,34.6,30.49,NNE,20,6.0,6.0,78,0.00,,,0.02,Wunderground v.1.15,2013-11-04 16:52:00,
2013-11-04 12:57:00,40.1,31.8,30.49,NNE,21,6.0,6.0,72,0.00,,,0.02,Wunderground v.1.15,2013-11-04 16:57:00,
2013-11-04 13:07:00,39.5,30.9,30.50,NNE,17,6.0,6.0,71,0.00,,,0.02,Wunderground v.1.15,2013-11-04 17:07:00,
2013-11-04 13:12:00,39.7,31.1,30.50,NNE,17,5.0,5.0,71,0.00,,,0.02,Wunderground v.1.15,2013-11-04 17:12:00,
2013-11-04 13:17:00,39.8,31.5,30.50,NNE,29,5.0,8.0,72,0.00,,,0.02,Wunderground v.1.15,2013-11-04 17:17:00,
2013-11-04 13:22:00,39.6,31.7,30.50,NNE,30,6.0,6.0,73,0.00,,,0.02,Wunderground v.1.15,2013-11-04 17:22:00,
2013-11-04 13:32:00,39.2,30.6,30.50,NE,47,6.0,6.0,71,0.00,,,0.02,Wunderground v.1.15,2013-11-04 17:32:00,
2013-11-04 13:37:00,39.1,30.5,30.50,NE,42,7.0,7.0,71,0.00,,,0.02,Wunderground v.1.15,2013-11-04 17:37:00,
2013-11-04 13:42:00,39.0,30.0,30.50,ENE,71,6.0,6.0,70,0.00,,,0.02,Wunderground v.1.15,2013-11-04 17:42:00,
2013-11-04 13:47:00,38.9,30.3,30.50,NE,34,5.0,7.0,71,0.00,,,0.02,Wunderground v.1.15,2013-11-04 17:47:00,
2013-11-04 13:52:00,38.9,29.9,30.51,NE,34,6.0,8.0,70,0.00,,,0.02,Wunderground v.1.15,2013-11-04 17:52:00,
2013-11-04 13:57:00,38.9,30.6,30.51,NE,36,7.0,8.0,72,0.00,,,0.02,Wunderground v.1.15,2013-11-04 17:57:00,
2013-11-04 14:02:00,38.8,30.5,30.51,NE,49,6.0,6.0,72,0.00,,,0.02,Wunderground v.1.15,2013-11-04 18:02:00,
2013-11-04 14:07:00,38.8,30.9,30.51,North,5,6.0,8.0,73,0.00,,,0.02,Wunderground v.1.15,2013-11-04 18:07:00,
2013-11-04 14:12:00,38.5,30.3,30.51,NNE,17,6.0,6.0,72,0.00,,,0.02,Wunderground v.1.15,2013-11-04 18:12:00,
2013-11-04 14:17:00,38.4,29.8,30.51,ENE,61,6.0,6.0,71,0.00,,,0.02,Wunderground v.1.15,2013-11-04 18:17:00,
2013-11-04 14:22:00,38.4,30.5,30.52,NE,35,5.0,7.0,73,0.00,,,0.02,Wunderground v.1.15,2013-11-04 18:22:00,
2013-11-04 14:27:00,38.4,29.8,30.52,NNE,22,6.0,9.0,71,0.00,,,0.02,Wunderground v.1.15,2013-11-04 18:27:00,
2013-11-04 14:32:00,38.4,30.2,30.52,NE,55,7.0,7.0,72,0.00,,,0.02,Wunderground v.1.15,2013-11-04 18:32:00,
2013-11-04 14:37:00,38.4,30.2,30.52,NNE,22,6.0,8.0,72,0.00,,,0.02,Wunderground v.1.15,2013-11-04 18:37:00,
2013-11-04 14:42:00,38.4,30.5,30.52,NE,39,6.0,6.0,73,0.00,,,0.02,Wunderground v.1.15,2013-11-04 18:42:00,
2013-11-04 14:47:00,38.3,30.1,30.52,NE,42,7.0,7.0,72,0.00,,,0.02,Wunderground v.1.15,2013-11-04 18:47:00,
2013-11-04 14:52:00,38.3,30.4,30.52,NE,56,6.0,6.0,73,0.00,,,0.02,Wunderground v.1.15,2013-11-04 18:52:00,
2013-11-04 14:57:00,38.3,30.1,30.52,NE,42,6.0,8.0,72,0.00,,,0.02,Wunderground v.1.15,2013-11-04 18:57:00,
2013-11-04 15:02:00,38.3,30.1,30.53,East,80,6.0,7.0,72,0.00,,,0.02,Wunderground v.1.15,2013-11-04 19:02:00,
2013-11-04 15:12:00,38.4,29.8,30.53,NNE,24,5.0,5.0,71,0.00,,,0.02,Wunderground v.1.15,2013-11-04 19:12:00,
2013-11-04 15:17:00,38.2,30.0,30.53,NNE,29,6.0,7.0,72,0.00,,,0.02,Wunderground v.1.15,2013-11-04 19:17:00,
2013-11-04 16:07:00,37.3,29.8,30.56,NE,35,5.0,7.0,74,0.00,,,0.02,Wunderground v.1.15,2013-11-04 20:07:00,
2013-11-04 16:12:00,37.2,29.3,30.56,NE,38,5.0,5.0,73,0.00,,,0.02,Wunderground v.1.15,2013-11-04 20:12:00,
2013-11-04 16:17:00,37.1,29.2,30.56,NNE,20,5.0,7.0,73,0.00,,,0.02,Wunderground v.1.15,2013-11-04 20:17:00,
2013-11-04 16:22:00,37.1,29.2,30.56,NNE,16,5.0,6.0,73,0.00,,,0.02,Wunderground v.1.15,2013-11-04 20:22:00,
2013-11-04 16:32:00,37.0,28.8,30.56,NNE,27,4.0,4.0,72,0.00,,,0.02,Wunderground v.1.15,2013-11-04 20:32:00,
2013-11-04 16:37:00,36.9,28.7,30.57,NE,46,4.0,4.0,72,0.00,,,0.02,Wunderground v.1.15,2013-11-04 20:37:00,
2013-11-04 16:42:00,36.9,28.7,30.57,NE,46,4.0,7.0,72,0.00,,,0.02,Wunderground v.1.15,2013-11-04 20:42:00,
2013-11-04 16:47:00,36.8,28.6,30.57,ENE,59,4.0,7.0,72,0.00,,,0.02,Wunderground v.1.15,2013-11-04 20:47:00,
2013-11-04 16:52:00,36.7,28.9,30.57,NNE,30,4.0,4.0,73,0.00,,,0.02,Wunderground v.1.15,2013-11-04 20:52:00,
2013-11-04 16:57:00,36.6,28.4,30.57,NE,54,3.0,4.0,72,0.00,,,0.02,Wunderground v.1.15,2013-11-04 20:57:00,
2013-11-04 17:02:00,36.6,28.4,30.58,NNE,16,4.0,4.0,72,0.00,,,0.02,Wunderground v.1.15,2013-11-04 21:02:00,
2013-11-04 17:07:00,36.6,28.4,30.58,NE,44,4.0,4.0,72,0.00,,,0.02,Wunderground v.1.15,2013-11-04 21:07:00,
2013-11-04 17:12:00,36.5,28.0,30.58,NNE,31,4.0,5.0,71,0.00,,,0.02,Wunderground v.1.15,2013-11-04 21:12:00,
2013-11-04 17:17:00,36.5,28.0,30.58,NE,51,4.0,5.0,71,0.00,,,0.02,Wunderground v.1.15,2013-11-04 21:17:00,
2013-11-04 17:22:00,36.5,28.3,30.59,ENE,76,4.0,8.0,72,0.00,,,0.02,Wunderground v.1.15,2013-11-04 21:22:00,
2013-11-04 17:27:00,36.4,28.2,30.59,NE,34,4.0,8.0,72,0.00,,,0.02,Wunderground v.1.15,2013-11-04 21:27:00,
2013-11-04 17:32:00,36.4,28.6,30.59,NE,34,4.0,7.0,73,0.00,,,0.02,Wunderground v.1.15,2013-11-04 21:32:00,
2013-11-04 17:37:00,36.4,28.6,30.60,NE,35,4.0,7.0,73,0.00,,,0.02,Wunderground v.1.15,2013-11-04 21:37:00,
2013-11-04 17:42:00,36.4,28.6,30.60,NNE,30,4.0,4.0,73,0.00,,,0.02,Wunderground v.1.15,2013-11-04 21:42:00,
2013-11-04 17:47:00,36.3,28.8,30.60,NE,50,5.0,5.0,74,0.00,,,0.02,Wunderground v.1.15,2013-11-04 21:47:00,
2013-11-04 17:52:00,36.2,29.0,30.60,NE,45,4.0,4.0,75,0.00,,,0.02,Wunderground v.1.15,2013-11-04 21:52:00,
2013-11-04 17:57:00,36.1,29.3,30.60,NNE,25,4.0,4.0,76,0.00,,,0.02,Wunderground v.1.15,2013-11-04 21:57:00,
2013-11-04 18:02:00,36.1,28.9,30.61,ENE,63,4.0,4.0,75,0.00,,,0.02,Wunderground v.1.15,2013-11-04 22:02:00,
2013-11-04 18:07:00,36.2,29.0,30.61,NE,46,4.0,4.0,75,0.00,,,0.02,Wunderground v.1.15,2013-11-04 22:07:00,
2013-11-04 18:12:00,36.2,29.0,30.61,ENE,69,3.0,3.0,75,0.00,,,0.02,Wunderground v.1.15,2013-11-04 22:12:00,
2013-11-04 18:17:00,36.1,28.9,30.61,NE,40,3.0,3.0,75,0.00,,,0.02,Wunderground v.1.15,2013-11-04 22:17:00,
2013-11-04 18:27:00,36.1,28.6,30.62,NE,36,4.0,5.0,74,0.00,,,0.02,Wunderground v.1.15,2013-11-04 22:27:00,
2013-11-04 18:37:00,36.1,29.6,30.62,NE,47,5.0,8.0,77,0.00,,,0.02,Wunderground v.1.15,2013-11-04 22:37:00,
2013-11-04 18:42:00,35.8,29.6,30.62,NNE,32,5.0,5.0,78,0.00,,,0.02,Wunderground v.1.15,2013-11-04 22:42:00,
2013-11-04 18:47:00,35.7,29.8,30.62,NE,34,5.0,5.0,79,0.00,,,0.02,Wunderground v.1.15,2013-11-04 22:47:00,
2013-11-04 18:52:00,35.6,29.7,30.62,NE,44,3.0,3.0,79,0.00,,,0.02,Wunderground v.1.15,2013-11-04 22:52:00,
2013-11-04 19:02:00,35.7,29.5,30.63,NE,39,2.0,3.0,78,0.00,,,0.02,Wunderground v.1.15,2013-11-04 23:02:00,
2013-11-04 19:07:00,35.8,29.0,30.63,NE,50,3.0,3.0,76,0.00,,,0.02,Wunderground v.1.15,2013-11-04 23:07:00,
2013-11-04 19:12:00,35.8,29.0,30.63,NE,47,3.0,3.0,76,0.00,,,0.02,Wunderground v.1.15,2013-11-04 23:12:00,
2013-11-04 19:17:00,35.9,28.7,30.63,NE,38,3.0,3.0,75,0.00,,,0.02,Wunderground v.1.15,2013-11-04 23:17:00,
2013-11-04 19:22:00,36.0,28.5,30.63,East,85,4.0,4.0,74,0.00,,,0.02,Wunderground v.1.15,2013-11-04 23:22:00,
2013-11-04 19:27:00,36.1,28.3,30.63,NE,44,3.0,4.0,73,0.00,,,0.02,Wunderground v.1.15,2013-11-04 23:27:00,
2013-11-04 19:32:00,36.1,27.9,30.63,NE,37,3.0,3.0,72,0.00,,,0.02,Wunderground v.1.15,2013-11-04 23:32:00,
2013-11-04 19:42:00,36.1,28.6,30.63,NE,34,2.0,2.0,74,0.00,,,0.02,Wunderground v.1.15,2013-11-04 23:42:00,
2013-11-04 19:47:00,36.0,28.5,30.63,NE,40,2.0,2.0,74,0.00,,,0.02,Wunderground v.1.15,2013-11-04 23:47:00,
2013-11-04 19:52:00,36.0,28.5,30.63,NE,36,2.0,2.0,74,0.00,,,0.02,Wunderground v.1.15,2013-11-04 23:52:00,
2013-11-04 19:57:00,36.0,28.5,30.63,NNE,31,2.0,3.0,74,0.00,,,0.02,Wunderground v.1.15,2013-11-04 23:57:00,
2013-11-04 20:07:00,35.9,29.1,30.63,NE,38,2.0,2.0,76,0.00,,,0.02,Wunderground v.1.15,2013-11-05 00:07:00,
2013-11-04 20:12:00,35.9,29.1,30.63,NNE,31,2.0,3.0,76,0.00,,,0.02,Wunderground v.1.15,2013-11-05 00:12:00,
2013-11-04 20:17:00,35.9,29.1,30.64,NNE,28,2.0,3.0,76,0.00,,,0.02,Wunderground v.1.15,2013-11-05 00:17:00,
2013-11-04 20:22:00,35.8,29.0,30.64,NNE,19,2.0,2.0,76,0.00,,,0.02,Wunderground v.1.15,2013-11-05 00:22:00,
2013-11-04 20:27:00,35.8,29.0,30.64,NE,42,2.0,2.0,76,0.00,,,0.02,Wunderground v.1.15,2013-11-05 00:27:00,
2013-11-04 20:32:00,35.9,28.4,30.64,East,93,2.0,3.0,74,0.00,,,0.02,Wunderground v.1.15,2013-11-05 00:32:00,
2013-11-04 20:37:00,36.1,27.9,30.64,NE,51,3.0,3.0,72,0.00,,,0.02,Wunderground v.1.15,2013-11-05 00:37:00,
2013-11-04 20:42:00,36.2,27.7,30.64,ENE,57,3.0,3.0,71,0.00,,,0.02,Wunderground v.1.15,2013-11-05 00:42:00,
2013-11-04 20:47:00,36.3,27.8,30.64,NE,53,2.0,3.0,71,0.00,,,0.02,Wunderground v.1.15,2013-11-05 00:47:00,
2013-11-04 20:52:00,36.3,27.8,30.64,NE,42,3.0,3.0,71,0.00,,,0.02,Wunderground v.1.15,2013-11-05 00:52:00,
2013-11-04 20:57:00,36.4,27.5,30.65,North,11,3.0,3.0,70,0.00,,,0.02,Wunderground v.1.15,2013-11-05 00:57:00,
2013-11-04 21:02:00,36.4,27.9,30.65,NE,41,2.0,2.0,71,0.00,,,0.02,Wunderground v.1.15,2013-11-05 01:02:00,
2013-11-04 21:07:00,36.3,27.8,30.64,NE,42,1.0,3.0,71,0.00,,,0.02,Wunderground v.1.15,2013-11-05 01:07:00,
2013-11-04 21:12:00,36.2,28.0,30.64,NNE,19,1.0,1.0,72,0.00,,,0.02,Wunderground v.1.15,2013-11-05 01:12:00,
2013-11-04 21:17:00,36.1,28.3,30.65,NNE,22,1.0,1.0,73,0.00,,,0.02,Wunderground v.1.15,2013-11-05 01:17:00,
2013-11-04 21:27:00,35.9,28.4,30.65,North,9,0.0,1.0,74,0.00,,,0.02,Wunderground v.1.15,2013-11-05 01:27:00,
2013-11-04 21:32:00,35.7,28.2,30.65,North,9,1.0,1.0,74,0.00,,,0.02,Wunderground v.1.15,2013-11-05 01:32:00,
2013-11-04 21:37:00,35.6,28.5,30.66,North,9,0.0,1.0,75,0.00,,,0.02,Wunderground v.1.15,2013-11-05 01:37:00,
2013-11-04 21:42:00,35.5,28.7,30.66,North,355,1.0,1.0,76,0.00,,,0.02,Wunderground v.1.15,2013-11-05 01:42:00,
2013-11-04 21:47:00,35.4,28.6,30.66,NNW,346,1.0,3.0,76,0.00,,,0.02,Wunderground v.1.15,2013-11-05 01:47:00,
2013-11-04 21:52:00,35.3,28.8,30.66,NNW,348,2.0,2.0,77,0.00,,,0.02,Wunderground v.1.15,2013-11-05 01:52:00,
2013-11-04 21:57:00,35.3,28.8,30.66,NNW,348,2.0,2.0,77,0.00,,,0.02,Wunderground v.1.15,2013-11-05 01:57:00,
2013-11-04 22:02:00,35.2,28.7,30.66,NNW,342,1.0,1.0,77,0.00,,,0.02,Wunderground v.1.15,2013-11-05 02:02:00,
2013-11-04 22:07:00,35.2,28.7,30.66,NNW,342,1.0,1.0,77,0.00,,,0.02,Wunderground v.1.15,2013-11-05 02:07:00,
2013-11-04 22:12:00,35.1,28.6,30.66,NNW,342,0.0,2.0,77,0.00,,,0.02,Wunderground v.1.15,2013-11-05 02:12:00,
2013-11-04 22:17:00,35.0,28.8,30.66,NNW,342,0.0,2.0,78,0.00,,,0.02,Wunderground v.1.15,2013-11-05 02:17:00,
2013-11-04 22:22:00,35.0,28.8,30.66,NNW,342,1.0,1.0,78,0.00,,,0.02,Wunderground v.1.15,2013-11-05 02:22:00,
2013-11-04 22:27:00,34.9,28.7,30.66,NNW,347,1.0,1.0,78,0.00,,,0.02,Wunderground v.1.15,2013-11-05 02:27:00,
2013-11-04 22:32:00,34.9,28.7,30.66,NNW,346,1.0,2.0,78,0.00,,,0.02,Wunderground v.1.15,2013-11-05 02:32:00,
2013-11-04 22:37:00,34.8,28.6,30.66,NNW,348,1.0,2.0,78,0.00,,,0.02,Wunderground v.1.15,2013-11-05 02:37:00,
2013-11-04 22:42:00,34.8,28.6,30.66,NNW,348,1.0,1.0,78,0.00,,,0.02,Wunderground v.1.15,2013-11-05 02:42:00,
2013-11-04 22:47:00,34.8,28.6,30.66,NNW,348,1.0,1.0,78,0.00,,,0.02,Wunderground v.1.15,2013-11-05 02:47:00,
2013-11-04 22:52:00,34.7,28.5,30.66,NNW,348,1.0,1.0,78,0.00,,,0.02,Wunderground v.1.15,2013-11-05 02:52:00,
2013-11-04 22:57:00,34.7,28.9,30.65,NNW,348,1.0,1.0,79,0.00,,,0.02,Wunderground v.1.15,2013-11-05 02:57:00,
2013-11-04 23:02:00,34.6,29.1,30.65,NNW,348,1.0,1.0,80,0.00,,,0.02,Wunderground v.1.15,2013-11-05 03:02:00,
2013-11-04 23:12:00,34.4,28.9,30.65,NNW,348,1.0,1.0,80,0.00,,,0.02,Wunderground v.1.15,2013-11-05 03:12:00,
2013-11-04 23:17:00,34.4,28.9,30.66,NNW,348,1.0,1.0,80,0.00,,,0.02,Wunderground v.1.15,2013-11-05 03:17:00,
2013-11-04 23:22:00,34.3,28.8,30.66,NNW,348,0.0,0.0,80,0.00,,,0.02,Wunderground v.1.15,2013-11-05 03:22:00,
2013-11-04 23:27:00,34.2,28.7,30.66,NNW,348,0.0,0.0,80,0.00,,,0.02,Wunderground v.1.15,2013-11-05 03:27:00,
2013-11-04 23:32:00,34.2,28.4,30.65,NNW,348,0.0,0.0,79,0.00,,,0.02,Wunderground v.1.15,2013-11-05 03:32:00,
2013-11-04 23:37:00,34.1,28.6,30.66,NNW,348,0.0,0.0,80,0.00,,,0.02,Wunderground v.1.15,2013-11-05 03:37:00,
2013-11-04 23:42:00,34.0,28.2,30.66,NNW,348,0.0,0.0,79,0.00,,,0.02,Wunderground v.1.15,2013-11-05 03:42:00,
2013-11-04 23:47:00,33.9,28.1,30.66,NNW,348,0.0,0.0,79,0.00,,,0.02,Wunderground v.1.15,2013-11-05 03:47:00,
2013-11-04 23:57:00,33.7,28.2,30.66,NNW,348,0.0,1.0,80,0.00,,,0.02,Wunderground v.1.15,2013-11-05 03:57:00,